Вернуться в каталог

CZ-6A DEB

АктивенPO
NORAD 55222·DEBRIS·🇨🇳 China

Запущен Nov 11, 2022 с Taiyuan Satellite Launch Center

Loading…

Ближайшие Пролёты (ближайшие 24 часа)

TLE

СвежийSource: Space-Track

Эпоха: Sep 14, 2026, 15:12 UTC

1 55222U 22151WP  26257.63390029  .00008233  00000-0  12203-2 0  9997
2 55222  98.6240 328.8070 0063869   5.9544 354.2407 14.73989785198008

Отслеживайте CZ-6A DEB в реальном времени с AllMySat

Download on the App Store